#timestamp,LO_Frequency,Hit 
1499922015.6,286047019.8,N
1499922035.4,286047019.4,N
1499922055.3,286047017.7,N
1499922075.1,286047018.3,N
1499922095.8,286047017.8,N
1499922115.7,286047020.5,N
1499922135.5,286047015.0,N
1499922155.3,286047012.8,N
1499922175.2,286047009.0,N
1499922195.9,286047008.5,N
1499922215.7,286047004.3,N
1499922235.6,286047000.5,N
1499922255.4,286047005.2,N
1499922275.2,286047001.5,N
1499922295.0,286047001.4,N
1499922295.9,286047001.4,N
1499922315.8,286047004.9,N
1499922335.6,286047001.8,N
1499922355.4,286046997.7,N
1499922375.3,286047000.3,N
1499922395.1,286047000.5,N
1499922415.8,286046993.7,N
1499922435.7,286046990.2,N
1499922455.5,286046991.1,N
1499922475.3,286046992.3,N
1499922495.2,286047000.0,N
1499922515.9,286047000.0,N
1499922535.7,286046998.7,N
1499922555.6,286047005.9,N
1499922575.4,286047009.0,N
1499922595.2,286047012.3,N
1499922615.0,286047011.0,N
1499922616.0,286047011.0,N
1499922635.8,286047013.3,N
1499922655.6,286047024.0,N
1499922675.4,286047029.0,N
1499922695.3,286047022.0,N
1499922715.1,286047015.0,N
1499922735.8,286047009.8,N
1499922755.7,286047015.3,N
1499922775.5,286047010.8,N
1499922795.3,286047004.8,N
1499922815.2,286047005.6,N
1499922835.9,286047007.6,N
1499922855.7,286047006.0,N
1499922875.6,286047004.8,N
1499922895.4,286047001.8,N
1499922915.2,286047002.9,N
1499922935.1,286047015.0,N
1499922936.0,286047015.0,N
1499922955.8,286047015.4,N
1499922975.6,286047020.2,N
1499922995.5,286047023.2,N
1499923015.3,286047027.8,N
1499923035.1,286047028.4,N
1499923055.9,286047023.0,N
1499923075.7,286047016.9,N
1499923095.5,286047012.5,N
1499923115.3,286047013.1,N
1499923135.2,286047011.7,N
1499923155.0,286047013.7,N
1499923155.9,286047013.7,N
1499923175.7,286047008.5,N
1499923195.6,286047004.1,N
1499923215.4,286047006.4,N
1499923235.2,286047006.2,N
1499923255.1,286047013.8,N
1499923256.0,286047013.8,N
1499923275.8,286047020.9,N
1499923295.6,286047016.5,N
1499923315.5,286047008.7,N
1499923335.3,286047001.6,N
1499923355.1,286047001.1,N
1499923375.9,286046999.9,N
1499923395.7,286047007.2,N
1499923415.5,286047011.0,N
1499923435.3,286047011.4,N
1499923455.2,286047008.3,N
1499923475.0,286047007.6,N
1499923475.9,286047007.6,N
1499923495.7,286047006.0,N
1499923515.6,286047002.3,N
1499923535.4,286047006.7,N
1499923555.2,286047004.8,N
1499923575.1,286047000.3,N
1499923576.0,286047000.3,N
1499923595.8,286046999.4,N
1499923615.6,286046998.6,N
1499923635.5,286046997.2,N
1499923655.3,286046996.2,N
1499923675.1,286046996.1,N
1499923695.9,286046993.5,N
1499923715.7,286046998.0,N
1499923735.5,286046995.3,N
1499923755.4,286046997.5,N
1499923775.2,286046997.1,N
1499923795.0,286046992.1,N
1499923795.9,286046992.1,N
1499923815.8,286046992.5,N
1499923835.6,286046992.5,N
1499923855.4,286046996.4,N
1499923875.3,286046997.9,N
1499923895.1,286046997.9,N
1499923896.0,286046997.9,N
1499923915.8,286046996.6,N
1499923935.6,286047001.5,N
1499923955.5,286047009.1,N
1499923975.3,286047009.5,N
1499923995.1,286047006.3,N
1499924015.9,286047003.3,N
1499924035.7,286047004.5,N
1499924055.5,286047003.8,N
1499924075.4,286047001.0,N
1499924095.2,286046999.1,N
1499924115.0,286046995.0,N
1499924115.9,286046995.0,N
1499924135.8,286046996.2,N
1499924155.6,286046994.3,N
1499924175.4,286046996.1,N
1499924195.3,286046994.7,N
1499924215.1,286046992.8,N
1499924216.0,286046992.8,N
1499924235.8,286046991.9,N
1499924255.7,286046995.1,N
1499924275.5,286047004.3,N
1499924295.3,286046998.4,N
1499924315.2,286047005.0,N
1499924335.9,286047014.6,N
1499924355.7,286047016.5,N
1499924375.5,286047016.2,N
1499924395.4,286047016.0,N
1499924415.2,286047015.3,N
1499924435.0,286047011.9,N
1499924435.9,286047011.9,N
1499924455.8,286047007.2,N
1499924475.6,286047005.7,N
1499924495.4,286047007.4,N
1499924515.3,286047003.3,N
1499924535.1,286047008.3,N
1499924555.8,286047009.0,N
1499924575.7,286047006.5,N
1499924595.5,286047002.1,N
1499924615.3,286046996.1,N
1499924635.2,286046990.6,N
1499924655.9,286046987.1,N
1499924675.7,286046985.1,N
1499924695.6,286046983.3,N
1499924715.4,286046983.9,N
1499924735.2,286046980.6,N
1499924755.0,286046981.7,N
1499924756.0,286046981.7,N
1499924775.8,286046978.3,N
1499924795.6,286046977.2,N
1499924815.4,286046980.7,N
1499924835.3,286046985.5,N
1499924855.1,286046989.2,N
1499924875.8,286046991.1,N
1499924895.7,286046991.0,N
1499924915.5,286046989.1,N
1499924935.3,286046985.3,N
1499924955.2,286046982.5,N
1499924975.9,286046980.0,N
1499924995.7,286046987.0,N
1499925015.6,286046992.1,N
1499925035.4,286046991.2,N
1499925055.2,286046991.7,N
1499925075.1,286046991.9,N
1499925076.0,286046991.9,N
1499925095.8,286046989.6,N
1499925115.6,286046991.5,N
1499925135.4,286046987.3,N
1499925155.3,286046982.5,N
1499925175.1,286046981.2,N
1499925195.8,286046977.6,N
1499925215.7,286046978.3,N
1499925235.5,286046980.2,N
1499925255.3,286046981.2,N
1499925275.2,286046979.7,N
1499925295.9,286046979.9,N
1499925315.7,286046980.6,N
1499925335.6,286046981.1,N
1499925355.4,286046979.3,N
1499925375.2,286046981.9,N
1499925395.1,286046980.6,N
1499925396.0,286046980.6,N
1499925415.8,286046985.2,N
1499925435.6,286046980.9,N
1499925455.5,286046980.5,N
1499925475.3,286046980.9,N
1499925495.1,286046977.6,N
1499925515.8,286046979.8,N
1499925535.7,286046981.7,N
1499925555.5,286046981.2,N
1499925575.3,286046981.9,N
1499925595.2,286046976.1,N
